Regional Weather Roundup
Issued by NWS Newport/Morehead, NC

Current Version | Previous Version | Text Only | Print | Product List | Glossary On
Versions: 1 2 3 4 5 6 7 8 9 10 11 12 13 14 15 16 17 18 19 20 21 22 23 24 25 26 27 28 29 30 31 32 33 34 35 36 37 38 39 40 41 42 43 44 45 46 47 48 49 50
000
ASUS42 KMHX 221814
RWRMHX
WEATHER ROUNDUP FOR EASTERN NORTH CAROLINA
NATIONAL WEATHER SERVICE NEWPORT/MOREHEAD CITY NC
100 PM EST MON JAN 22 2018

NOTE: "FAIR" INDICATES FEW OR NO CLOUDS BELOW 12,000 FEET
WITH NO SIGNIFICANT WEATHER AND/OR OBSTRUCTIONS TO VISIBILITY

NCZ015>017-031-032-045>047-102-103-221900-
NORTH COAST

CITY           SKY/WX    TMP DP  RH WIND       PRES   REMARKS
EDENTON        FAIR      63  45  51 S3        30.18F
ELIZABETH CITY FAIR      62  53  72 S8        30.18F
KITTY HAWK     FAIR      61  42  50 CALM      30.18F
MANTEO         FAIR      58  42  53 S5        30.20F

$$

NCZ045>047-081-094-103-104-221900-
CENTRAL COAST

CITY           SKY/WX    TMP DP  RH WIND       PRES   REMARKS
FRISCO         NOT AVBL

$$

NCZ095-097-098-100-101-221900-
SOUTHERN COAST

CITY           SKY/WX    TMP DP  RH WIND       PRES   REMARKS
BEAUFORT       FAIR      65  49  56 SE6       30.18F
CEDAR ISLAND   NOT AVBL
JACKSONVILLE   PTSUNNY   63  44  50 E6        30.18F
PINEY ISLAND   NOT AVBL
WILMINGTON     PTSUNNY   64  48  56 SE3       30.18F


$$

NCZ011>013-027>030-043-044-078>080-089-090>093-098-221900-
COASTAL PLAIN

CITY           SKY/WX    TMP DP  RH WIND       PRES   REMARKS
AHOSKIE        FAIR      62  43  49 S6        30.16F
CLINTON        FAIR      62  48  61 S6        30.18F
ELIZABETHTOWN  NOT AVBL
GOLDSBORO      FAIR      63  48  58 S9        30.15F
GREENVILLE     FAIR      64  43  45 S7        30.18F
HAVELOCK       NOT AVBL
KENANSVILLE    FAIR      63  48  59 S6        30.17F
KINSTON        FAIR      64  46  52 S8        30.17F
NEW BERN       FAIR      62  44  51 E8        30.18F
RICHLANDS      PTSUNNY   64  49  57 VRB7      30.18F
ROCKY MOUNT    FAIR      62  42  47 S7        30.16F
WASHINGTON     FAIR      63  43  49 SE3       30.18F
WHITEVILLE     CLOUDY    62  49  60 S3        30.16F

$$

AMZ130-135-150-152-154-156-158-170-250-252-270-ANZ085-086-088-633-658-670-221900-
MARINE OBSERVATIONS

STATION/POSITION TIME  TEMP    WIND        PRES    WAVE   SWELL
                       AIR SEA DIR/SP/G            HT/PER HT/PER
                 (UTC) (F)     (DEG/KT/KT) (MB)    (FT/S) (FT/S)
CHESAPEAKE LIGHT NOT AVBL
64 E VA BEACH    1750   57 60  220/  6/  8 1022.9    1/10   2/10
DUCK             1748   56 40  170/  4/  5 1021.7
2 E DUCK         1800      43                N/A     1/11
OREGON INLET     1736   53 43  140/  3/  5 1022.8
13E OREGON INLT  1748      42                N/A     1/11   2/11
HATTERAS CG      1748   53 49   20/  5/  5 1022.5
DIAMOND BUOY     1750   65     220/  4/  6   N/A     1/ 9   2/ 9
CAPE LOOKOUT     1800           40/  5/  6 1022.3
BEAUFORT LAB     1748   61 47  120/  5/  7 1022.1
30 SE NEW RVR IN 1708   61 60   90/  4/  6 1022.7
30 SE NEW RVR IN 1800      60                N/A     1/11
27 SE WRIGHTSVLE 1708   63 63   70/  6/ 10 1022.4
5 SE WRIGHTSVLE  1708   49 46   30/  4/  6 1022.6
225 S CAPE HAT   1750   69 70  140/ 10/ 12 1022.3    2/10   2/10
41 SE CHARLESTON 1750   70 70  180/ 12/ 14 1020.8    2/10   2/10

$$



USA.gov is the U.S. government's official web portal to all federal, state and local government web resources and services.